YO8SSH-13 Weather Reports


time (UTC)temp
F
wind
direction
speed
knots
gust
knots
rain 1hr
in
rain 24hr
in
rain mn
in
humidity
%
barometer
mb
20260906034827 57 180 0.0 0.0 0.02 0.10 0.02 86 1016.0
20260906033327 57 202 0.0 0.0 0.00 0.08 0.00 86 1016.0
20260906031827 56 315 0.0 0.0 0.00 0.08 0.00 85 1016.0
20260906030336 56 22 0.0 0.0 0.00 0.08 0.00 85 1016.0
20260906024827 56 0 0.0 0.0 0.00 0.08 0.00 85 1016.0
20260906023325 56 292 0.9 3.5 0.00 0.08 0.00 85 1016.0
20260906021827 56 202 0.0 0.9 0.00 0.08 0.00 85 1016.0
20260906020327 56 338 0.0 0.0 0.00 0.08 0.00 85 1016.0
20260906014829 56 202 0.0 0.0 0.00 0.08 0.00 85 1016.0
20260906013326 56 202 0.0 0.0 0.00 0.08 0.00 84 1016.0
20260906011827 56 292 0.0 0.0 0.00 0.08 0.00 84 1016.0
20260906010326 56 0 0.0 0.0 0.00 0.08 0.00 84 1016.0
20260906004826 57 22 0.0 1.7 0.00 0.08 0.00 84 1016.0
20260906003331 57 292 0.0 0.0 0.00 0.08 0.00 84 1016.0
20260906001826 57 202 0.0 0.0 0.00 0.08 0.00 84 1016.0
20260906000327 57 270 0.0 0.0 0.00 0.08 0.00 84 1016.0
20260905234826 57 315 0.0 0.0 0.00 0.08 0.00 84 1016.0
20260905233326 57 292 0.0 0.0 0.00 0.08 0.00 84 1016.0
20260905231826 57 338 0.0 0.9 0.00 0.08 0.00 84 1016.0
20260905230327 57 248 0.0 0.0 0.00 0.08 0.00 84 1016.0
20260905224832 57 180 0.0 2.6 0.00 0.08 0.00 84 1016.0
20260905223327 58 292 0.0 0.0 0.00 0.08 0.00 84 1016.0
20260905221826 58 315 0.0 0.9 0.00 0.08 0.00 84 1016.0
20260905220326 58 292 0.0 2.6 0.00 0.08 0.00 84 1016.0
20260905214826 58 248 0.0 1.7 0.00 0.08 0.00 83 1016.0
20260905213326 58 270 0.0 2.6 0.00 0.08 0.00 83 1016.0
20260905211827 59 225 3.5 3.5 0.00 0.08 0.00 83 1016.0
20260905210326 59 248 0.0 0.9 0.00 0.08 0.00 82 1016.0
20260905204826 59 292 0.0 0.9 0.00 0.08 0.06 82 1016.0
20260905203327 60 292 0.0 0.0 0.00 0.08 0.06 82 1016.0
20260905201826 60 292 0.0 0.0 0.00 0.08 0.06 82 1016.0
20260905200328 60 292 0.0 0.0 0.00 0.08 0.06 82 1016.0
20260905194826 60 292 0.0 0.0 0.00 0.08 0.06 82 1016.0
20260905193326 60 292 0.0 0.0 0.00 0.08 0.06 82 1015.0
20260905191826 60 315 0.0 0.0 0.00 0.08 0.06 82 1015.0
20260905190326 61 225 0.0 0.0 0.00 0.08 0.06 82 1015.0
20260905184826 61 248 0.0 0.0 0.00 0.08 0.06 82 1015.0
20260905183325 61 292 0.0 0.0 0.00 0.08 0.06 81 1015.0
20260905181833 62 180 0.9 0.9 0.00 0.08 0.06 81 1015.0
20260905180325 62 248 0.0 0.0 0.00 0.08 0.06 81 1015.0
20260905174830 62 292 0.0 0.0 0.00 0.08 0.06 81 1015.0
20260905173327 62 338 0.0 0.9 0.00 0.08 0.06 81 1015.0
20260905171831 62 248 0.0 0.0 0.00 0.08 0.06 80 1014.0
20260905170327 63 292 0.0 1.7 0.00 0.08 0.06 80 1014.0
20260905164826 63 292 1.7 2.6 0.00 0.08 0.06 78 1015.0
20260905164631 63 292 0.0 2.6 0.00 0.08 0.06 78 1015.0
20260905163326 63 270 0.0 0.0 0.00 0.08 0.06 78 1014.0
20260905163132 63 292 0.0 0.0 0.00 0.08 0.06 78 1015.0
20260905161826 63 338 0.0 0.0 0.00 0.08 0.06 78 1015.0
20260905161632 63 292 0.0 0.0 0.00 0.08 0.06 78 1014.0
20260905160326 64 0 0.0 3.5 0.00 0.08 0.06 78 1015.0
20260905160132 64 315 0.9 3.5 0.00 0.08 0.06 78 1015.0
20260905154826 64 338 0.0 0.9 0.02 0.08 0.08 78 1014.0
20260905154631 64 338 0.0 0.9 0.02 0.08 0.08 78 1014.0
20260905153327 64 202 0.0 0.9 0.02 0.08 0.08 78 1014.0
20260905153135 64 135 0.0 0.9 0.02 0.08 0.08 78 1014.0
20260905151825 65 45 0.0 1.7 0.02 0.08 0.08 76 1014.0
20260905151631 65 0 0.0 1.7 0.02 0.08 0.08 76 1014.0
20260905150326 65 22 0.0 1.7 0.02 0.08 0.08 74 1013.0
20260905150132 65 0 0.0 1.7 0.02 0.08 0.08 74 1013.0
20260905144826 66 90 0.0 0.0 0.00 0.06 0.06 71 1014.0
20260905143331 67 0 0.9 0.9 0.00 0.06 0.06 68 1014.0
20260905143131 67 248 0.9 0.9 0.00 0.06 0.06 68 1014.0
20260905141826 70 0 0.0 0.0 0.00 0.06 0.06 62 1014.0
20260905141630 70 0 0.0 0.0 0.00 0.06 0.06 62 1014.0
20260905140326 70 0 0.0 2.6 0.00 0.06 0.06 62 1014.0
20260905140131 70 0 0.0 2.6 0.00 0.06 0.06 62 1014.0
20260905134826 70 0 2.6 4.3 0.00 0.06 0.06 62 1015.0
20260905134631 70 0 2.6 4.3 0.00 0.06 0.06 62 1014.0
20260905133334 71 270 0.9 3.5 0.00 0.06 0.06 62 1014.0
20260905133132 71 270 0.9 3.5 0.00 0.06 0.06 62 1014.0
20260905131826 72 22 0.0 3.5 0.00 0.06 0.06 62 1014.0
20260905131631 72 270 0.0 3.5 0.00 0.06 0.06 62 1014.0
20260905130327 72 0 2.6 2.6 0.02 0.08 0.08 62 1014.0
20260905130130 72 292 0.0 2.6 0.02 0.08 0.08 62 1014.0
20260905124826 72 270 0.0 4.3 0.06 0.08 0.08 63 1014.0
20260905124632 72 22 1.7 4.3 0.06 0.08 0.08 63 1014.0
20260905123332 70 315 1.7 3.5 0.06 0.08 0.08 65 1014.0
20260905123131 70 90 3.5 3.5 0.06 0.08 0.08 66 1014.0
20260905121827 70 270 1.7 3.5 0.06 0.08 0.08 65 1014.0
20260905120328 73 225 0.0 6.1 0.04 0.06 0.06 63 1014.0
20260905120130 73 292 1.7 6.1 0.04 0.04 0.04 62 1014.0
20260905114827 76 225 1.7 2.6 0.00 0.00 0.00 60 1014.0
20260905114631 76 112 0.0 2.6 0.00 0.00 0.00 59 1014.0
20260905113329 78 22 0.0 3.5 0.00 0.00 0.00 57 1014.0
20260905113133 78 135 0.0 3.5 0.00 0.00 0.00 57 1014.0
20260905111826 80 248 0.0 10.4 0.00 0.00 0.00 53 1013.0
20260905111631 80 248 0.0 10.4 0.00 0.00 0.00 53 1013.0
20260905110334 81 338 1.7 6.1 0.00 0.00 0.00 53 1012.0
20260905110130 81 338 1.7 6.1 0.00 0.00 0.00 53 1012.0
20260905104825 82 292 1.7 2.6 0.00 0.00 0.00 52 1012.0
20260905103332 83 90 0.0 2.6 0.00 0.00 0.00 51 1012.0
20260905103130 83 68 1.7 2.6 0.00 0.00 0.00 51 1012.0
20260905101826 84 338 3.5 3.5 0.00 0.00 0.00 48 1011.0
20260905101631 84 338 3.5 3.5 0.00 0.00 0.00 48 1011.0
20260905100331 84 248 2.6 3.5 0.00 0.00 0.00 49 1011.0
20260905094827 82 0 4.3 4.3 0.00 0.00 0.00 49 1011.0
20260905094631 82 0 4.3 4.3 0.00 0.00 0.00 51 1011.0
20260905093326 82 338 0.0 0.9 0.00 0.00 0.00 54 1011.0
20260905093130 82 338 0.0 1.7 0.00 0.00 0.00 54 1011.0
20260905091826 80 0 0.0 0.0 0.00 0.00 0.00 55 1011.0
20260905090325 79 135 0.0 0.9 0.00 0.00 0.00 57 1011.0
20260905084826 77 22 0.0 0.9 0.00 0.00 0.00 60 1011.0
20260905083326 76 112 0.0 0.0 0.00 0.00 0.00 60 1011.0
20260905081826 75 90 0.0 0.9 0.00 0.00 0.00 60 1011.0
20260905080326 75 180 1.7 7.0 0.00 0.00 0.00 60 1011.0
20260905074825 75 202 0.0 4.3 0.00 0.00 0.00 61 1011.0
20260905073326 76 180 0.0 2.6 0.00 0.00 0.00 60 1011.0
20260905071825 76 202 1.7 1.7 0.00 0.00 0.00 59 1011.0
20260905070325 76 135 0.0 2.6 0.00 0.00 0.00 59 1011.0
20260905064826 75 202 3.5 3.5 0.00 0.00 0.00 60 1012.0
20260905063327 75 158 1.7 1.7 0.00 0.00 0.00 58 1012.0
20260905061826 74 248 1.7 2.6 0.00 0.00 0.00 61 1012.0
20260905060325 73 225 0.0 5.2 0.00 0.00 0.00 62 1012.0
20260905054826 72 90 0.0 2.6 0.00 0.00 0.00 63 1012.0
20260905053325 70 180 1.7 1.7 0.00 0.00 0.00 69 1012.0
20260905051826 68 202 0.9 2.6 0.00 0.00 0.00 72 1012.0
20260905050326 66 225 0.0 0.0 0.00 0.00 0.00 72 1012.0
20260905044842 64 112 0.0 0.0 0.00 0.00 0.00 74 1012.0
20260905043325 64 112 0.0 0.0 0.00 0.00 0.00 74 1012.0
20260905041825 64 202 0.0 0.0 0.00 0.00 0.00 74 1012.0
20260905040326 63 180 0.0 0.0 0.00 0.00 0.00 75 1011.0